Regional Weather Roundup
Issued by NWS

Home | Current Version | Previous Version | Graphics & Text | Print | Product List | Glossary On
Versions: 1 2 3 4 5 6 7 8 9 10 11 12 13 14 15 16 17 18 19 20 21 22 23 24 25 26 27
000
ASUS45 KSLC 290710
RWRUT

UTAH REGIONAL WEATHER ROUNDUP
NATIONAL WEATHER SERVICE SALT LAKE CITY UT
100 AM MDT SAT APR 29 2017

UTZ001>011-023>025-290800-

NORTHERN UTAH

CITY           SKY/WX    TMP DP  RH WIND       PRES   REMARKS
BRIGHAM CITY   CLOUDY    42  28  55 E7        30.09R
HILL AFB       MOCLDY    40  22  48 NE9       30.06R WCI  34
LOGAN          CLOUDY    41  26  55 E9        30.09R
OGDEN          CLOUDY    40  24  53 N10       30.06R WCI  33
SALT LAKE CITY MOCLDY    42  29  59 N13       30.04R
TOOELE VALLEY  MOCLDY    37  34  87 N9        30.06R WCI  31
WENDOVER       MOCLDY    46  22  38 N14G23    30.10R
HEBER CITY     CLOUDY    34  23  64 NE12G18   30.01R WCI  25
WEST JORDAN    PTCLDY    39  38  97 W8        30.05R WCI  33

$$

UTZ011>015-024>027-290800-

CENTRAL/NORTHEAST UTAH

CITY           SKY/WX    TMP DP  RH WIND       PRES   REMARKS
PROVO AIRPORT  MOCLDY    38  31  76 NW5       30.02R WCI  34
MOAB/CANYONLAN PTCLDY    40  30  67 NW13      29.86R WCI  32
DELTA          CLOUDY    37  32  81 N10       30.03R WCI  30
PRICE          MOCLDY    34  28  79 NW10      29.93R WCI  26
RICHFIELD      CLOUDY    36  34  93 SW7       30.03S WCI  30
ROOSEVELT      CLOUDY    36  32  87 CALM      29.99R
VERNAL         CLOUDY    37  23  56 NE8G22    29.98R WCI  31

$$

UTZ013>016-019>022-027-290800-

SOUTHERN UTAH

CITY           SKY/WX    TMP DP  RH WIND       PRES   REMARKS
BRYCE CANYON   PTCLDY    27  21  78 NW15G22   29.96R WCI  15
CEDAR CITY     PTCLDY    36  24  62 NE17      30.01R WCI  26
MILFORD        CLOUDY    40  26  57 N8        30.02R WCI  34
ST GEORGE      MOSUNNY   52  24  33 VRB3      29.98
HANKSVILLE     CLOUDY    45  27  49 NW10G17   29.93R
KANAB          CLEAR     39  19  45 CALM      30.00R
BLANDING       PTCLDY    36  24  62 NW10      29.90S WCI  28

$$

REGIONAL REPORTS     COLORADO/ARIZONA

CITY           SKY/WX    TMP DP  RH WIND       PRES   REMARKS
CRAIG, CO      CLOUDY    34  26  72 E8        29.94R WCI  27
GRAND JUNCTION CLOUDY    39  28  64 W6        29.86R WCI  35
RIFLE, CO      CLOUDY    38  29  70 N3        29.88R
MONTROSE, CO   LGT SNOW  33  33 100 E3        29.88R FOG
CORTEZ, CO     CLOUDY    35  27  72 S6        29.84R WCI  30
COLORADO CITY    N/A     41  23  48 NW8       29.99S
PAGE, AZ       CLEAR     47  21  35 NW7       29.89R
GRAND CANYON   CLEAR     33  14  45 N6        29.92S WCI  28
KINGMAN, AZ    CLEAR     40  32  73 E7        29.95R
FLAGSTAFF, AZ  CLEAR     28  10  46 S3        29.89R

$$

REGIONAL REPORTS    NEVADA/IDAHO/WYOMING

CITY           SKY/WX    TMP DP  RH WIND       PRES   REMARKS
LAS VEGAS, NV  CLEAR     63  14  15 N17       29.98R
ELY, NY        MOCLDY    28  19  69 NW7       30.11R WCI  21
ELKO, NV       CLEAR     36  23  59 CALM      30.17R
POCATELLO, ID  CLEAR     31  27  85 CALM      30.11R
BURLEY, ID     MOCLDY    41  28  60 W13G22    30.11R
FORT BRIDGER,  CLOUDY    28  27  93 E10       30.11R WCI  19
EVANSTON, WY   CLOUDY    27  23  85 NE12      30.07R WCI  17
ROCK SPRINGS,  CLOUDY    29  21  72 NE18      30.07R WCI  16

$$




USA.gov is the U.S. government's official web portal to all federal, state and local government web resources and services.